Print

CHIHRRCWA 000
TTAA00 KDVN 301404
HOURLY WEATHER ROUNDUP
NATIONAL WEATHER SERVICE QUAD CITIES IA IL
900 AM CDT THU OCT 30 2014

Note: "Fair" indicates few or no clouds below 12,000 feet with no
significant weather and/or obstructions to visibility.

* - These stations are not NWS stations...and not subject to NWS
quality control.  Some stations do not report weather such as fog.

...NORTHEAST IOWA..................................................

  
CITY           SKY/WX    TMP DP  RH WIND       PRES   REMARKS
DECORAH *      CLOUDY    37  34  87 SE5       30.06S WCI  34          
WATERLOO       CLOUDY    41  35  79 SE7       30.06R WCI  36          
OELWEIN *      CLOUDY    41  36  81 SE7       30.08R WCI  36          
INDEPENDENCE * CLOUDY    39  36  87 SE6       30.07R WCI  35          
DUBUQUE        CLOUDY    37  35  92 SW5       30.10S WCI  33          

...SOUTHWEST AND SOUTH CENTRAL WISCONSIN...........................

  
CITY           SKY/WX    TMP DP  RH WIND       PRES   REMARKS
PRAIRIE DU CHI PTSUNNY   36  33  90 CALM      30.10S                  
BOSCOBEL       FOG       34  33  96 CALM      30.12S VSB 1/2          
LONE ROCK      CLOUDY    39  33  79 CALM      30.11R                  
MINERAL POINT* NOT AVBL                                               
MONROE *       CLOUDY    37  34  87 S6        30.10S WCI  33          
JANESVILLE *   MOSUNNY   37  36  93 CALM      30.11S                  

...EAST CENTRAL IOWA...............................................

  
CITY           SKY/WX    TMP DP  RH WIND       PRES   REMARKS
MARSHALLTOWN   CLOUDY    41  37  86 SE7       30.03R WCI  36          
NEWTON *       CLOUDY    43  37  81 SE14      30.02F WCI  36          
VINTON *       CLOUDY    40  35  79 S8        30.07S WCI  35          
CEDAR RAPIDS   CLOUDY    41  37  86 SE6       30.08S WCI  37          
IOWA CITY      CLOUDY    39  36  89 SE3       30.12R                  
MONTICELLO *   CLOUDY    39  37  93 SE5       30.09F WCI  36          
CLINTON *      PTSUNNY   37  34  87 CALM      30.14R                  
DAVENPORT      PTSUNNY   41  34  76 SE5       30.11R WCI  38          

...NORTHWEST ILLINOIS..............................................

  
CITY           SKY/WX    TMP DP  RH WIND       PRES   REMARKS
FREEPORT *     CLOUDY    37  33  87 CALM      30.13S                  
ROCKFORD       CLOUDY    36  32  85 CALM      30.14S                  
SAVANNA *      PTSUNNY   37  34  89 CALM      30.12S                  
STERLING/R.F.* MOSUNNY   37  30  75 CALM      30.12S                  
ROCHELLE *     PTSUNNY   37  34  89 CALM      30.13S                  
MOLINE         CLOUDY    40  34  79 CALM      30.11R                  
PERU *         PTSUNNY   37  34  90 S3        30.14S                  

...SOUTHEAST IOWA AND NORTHEAST MISSOURI...........................

  
CITY           SKY/WX    TMP DP  RH WIND       PRES   REMARKS
KNOXVILLE *    CLOUDY    41  36  81 E9        30.03S WCI  35          
OTTUMWA        CLOUDY    44  36  73 SE7       30.06S                  
FAIRFIELD *    CLOUDY    43  36  75 SE6       30.08S WCI  39          
WASHINGTON *   CLOUDY    43  39  87 SE6       30.09S WCI  39          
MT PLEASANT *  CLOUDY    42  37  83 SE6       30.10R WCI  38          
BURLINGTON     CLOUDY    43  36  76 SE5       30.10S                  
KIRKSVILLE     CLOUDY    45  39  79 S7        30.06S                  

...WESTERN ILLINOIS................................................

  
CITY           SKY/WX    TMP DP  RH WIND       PRES   REMARKS
MACOMB *       CLOUDY    39  36  88 SE5       30.14S WCI  35          
GALESBURG *    CLOUDY    39  36  88 S3        30.12S                  
PEORIA         PTSUNNY   41  36  82 S6        30.14S WCI  37          
QUINCY         PTSUNNY   45  36  70 S9        30.10S                  

END...
  

USA.gov is the U.S. government's official web portal to all federal, state and local government web resources and services.